This is the latest recevied weather packets stored in our database for station/object SR4DIG-13. If no packets are shown the sender has not sent any weather packets the latest 10 day(s).
| Time | Temp. | Humidity | Pressure | Rain* | Wind** | Luminosity | Snow |
|---|---|---|---|---|---|---|---|
| 1788255781 | 29.44° C | 50% | 1011.6 hPa | 0 mm | - | - | - |
| 1788255480 | 28.89° C | 50% | 1011.6 hPa | 0 mm | - | - | - |
| 1788255179 | 28.33° C | 53% | 1011.7 hPa | 0 mm | - | - | - |
| 1788254877 | 27.78° C | 53% | 1011.7 hPa | 0 mm | - | - | - |
| 1788254577 | 27.78° C | 54% | 1011.7 hPa | 0 mm | - | - | - |
| 1788254276 | 27.22° C | 56% | 1011.8 hPa | 0 mm | - | - | - |
| 1788253975 | 26.11° C | 59% | 1011.7 hPa | 0 mm | - | - | - |
| 1788253674 | 25° C | 62% | 1011.7 hPa | 0 mm | - | - | - |
| 1788253373 | 23.89° C | 64% | 1011.7 hPa | 0 mm | - | - | - |
| 1788253072 | 23.33° C | 64% | 1011.7 hPa | 0 mm | - | - | - |
| 1788252771 | 23.89° C | 63% | 1011.9 hPa | 0 mm | - | - | - |
| 1788252471 | 24.44° C | 63% | 1011.9 hPa | 0 mm | - | - | - |
| 1788252170 | 24.44° C | 63% | 1011.8 hPa | 0 mm | - | - | - |
| 1788251869 | 25° C | 63% | 1011.7 hPa | 0 mm | - | - | - |
| 1788251568 | 24.44° C | 65% | 1011.8 hPa | 0 mm | - | - | - |
| 1788251267 | 24.44° C | 68% | 1011.8 hPa | 0 mm | - | - | - |
| 1788250966 | 22.78° C | 69% | 1011.7 hPa | 0 mm | - | - | - |
| 1788250665 | 22.78° C | 71% | 1011.5 hPa | 0 mm | - | - | - |
| 1788250364 | 22.22° C | 73% | 1011.7 hPa | 0 mm | - | - | - |
| 1788250063 | 20.56° C | 76% | 1011.8 hPa | 0 mm | - | - | - |
| 1788249702 | 21.11° C | 75% | 1011.8 hPa | 0 mm | - | - | - |
| 1788249209 | 21.11° C | 75% | 1011.9 hPa | 0 mm | - | - | - |
| 1788248908 | 21.11° C | 76% | 1011.9 hPa | 0 mm | - | - | - |
| 1788248608 | 20.56° C | 79% | 1011.9 hPa | 0 mm | - | - | - |
| 1788248307 | 20° C | 79% | 1011.7 hPa | 0 mm | - | - | - |
* Rain latest hour (hover to see other rain measurements)
** Current wind speed in m/s (hover to see current wind gust speed)